Lexington Weather

Lexington, Massachusetts, USA

37°F
1/27/2020 7:52am 
  • Lexington Conditions: Overcast
  • Temperature: 36.5°F / 2.5°CWarmer 0.4°F than last hour.
  • Dew Point: 31.5°FIncreased 0.4°Fsince last hour.
  • Relative Humidity: 82
  • Wind: Wind from SW SW 2 mph, 10-min avg: 3 mph, gust: 8 mph
  • Barometer: 29.57 in Steady
  • Visibility: 10 miles
  • Rain Today: 0.00 in
  •   

Regional Weather Roundup
for Boston / Norton, MA

        
000
ASUS41 KBOX 241301
RWRBOX

REGIONAL WEATHER ROUNDUP
NATIONAL WEATHER SERVICE BOSTON/NORTON MA
800 AM EST FRI JAN 24 2020

NOTE:  "FAIR" INDICATES FEW OR NO CLOUDS BELOW 12,000 FEET WITH NO 
SIGNIFICANT WEATHER AND/OR OBSTRUCTIONS TO VISIBILITY.

MAZALL-241400-
EASTERN MASSACHUSETTS
  
CITY           SKY/WX    TMP DP  RH WIND       PRES   REMARKS
BOSTON         MOCLDY    36  21  54 NW6       30.41R WCI  31          
BEVERLY        FAIR      27  17  66 N6        30.40R WCI  20          
LAWRENCE       FAIR      25  18  74 CALM      30.43R                  
BEDFORD        FAIR      23  18  81 CALM      30.40R                  
BLUE HILL        N/A     30  18  60 N10       30.36R WCI  21          
NORWOOD        FAIR      24  18  77 CALM      30.41R                  
MARSHFIELD     NOT AVBL                                               
PLYMOUTH       FAIR      25  22  88 CALM      30.39R                  
TAUNTON        FAIR      22  20  92 CALM      30.39R FOG              
NEW BEDFORD    FAIR      25  23  92 CALM      30.38R                  
$$

MAZALL-241400-
CAPE COD AND THE ISLANDS
  
CITY           SKY/WX    TMP DP  RH WIND       PRES   REMARKS
FALMOUTH       CLEAR     25  23  93 NE3       30.38R                  
HYANNIS        NOT AVBL                                               
CHATHAM        FAIR      30  29  96 CALM      30.39S FOG              
PROVINCETOWN   FAIR      25  23  92 CALM      30.39R                  
NANTUCKET      FAIR      30  29  96 CALM      30.38R FOG              
MARTHAS VNYRD  FAIR      28  26  92 CALM      30.38R                  
$$
 
MAZALL-241400-
CENTRAL AND WESTERN MASSACHUSETTS
  
CITY           SKY/WX    TMP DP  RH WIND       PRES   REMARKS
WORCESTER      FAIR      34   9  35 N10       30.36R WCI  26          
FITCHBURG      FAIR      22  16  78 N3        30.41R                  
ORANGE         FOG       18  14  84 CALM      30.41R VSB 1/2          
SPRINGFIELD    PTCLDY    16  13  88 CALM      30.40R                  
WESTFIELD      FAIR      20  17  88 NE3       30.41R                  
NORTH ADAMS    FAIR      18  14  84 CALM      30.39R                  
PITTSFIELD     FAIR      22  16  78 NE5       30.34R WCI  16          
$$
 
RIZALL-241400-
RHODE ISLAND
  
CITY           SKY/WX    TMP DP  RH WIND       PRES   REMARKS
PROVIDENCE     FAIR      30  22  72 CALM      30.40R                  
NEWPORT        FAIR      32  26  78 N3        30.37R                  
BLOCK ISLAND   FAIR      37  25  61 N5        30.39R                  
SMITHFIELD     FAIR      31  17  56 N5        30.39R WCI  26          
WESTERLY       FAIR      31  24  75 CALM      30.40R                  
$$
 
CTZALL-241400-
CONNECTICUT
  
CITY           SKY/WX    TMP DP  RH WIND       PRES   REMARKS
BRADLEY INTL   FAIR      24  17  74 N5        30.41R WCI  18          
HARTFORD       FAIR      26  21  81 CALM      30.42R                  
BRIDGEPORT     FAIR      31  23  72 N5        30.39R WCI  26          
DANBURY        FAIR      21  17  84 CALM      30.39R                  
GROTON         NOT AVBL                                               
NEW HAVEN      FAIR      32  23  69 N6        30.39R WCI  26          
CHESTER        NOT AVBL                                               
MERIDEN        FAIR      26  21  81 W9        30.41R WCI  17          
WILLIMANTIC    FAIR      23  20  88 CALM      30.41R                  
OXFORD         FAIR      28  19  69 CALM      30.38R                  
$$

MEZ002-015-021-024-NHZ003-005-008-011-012-014-VTZ005-008-241400-
NORTHERN NEW ENGLAND
  
CITY           SKY/WX    TMP DP  RH WIND       PRES   REMARKS
PORTLAND ME    MOCLDY    31  19  61 N5        30.44R WCI  26          
BANGOR ME      MOCLDY    19  17  92 CALM      30.47R                  
CONCORD NH     FAIR      18  15  88 CALM      30.42R                  
MANCHESTER NH  MOCLDY    23  15  71 N5        30.41R WCI  17          
NASHUA NH      FAIR      20  18  92 NW3       30.43R                  
PORTSMOUTH NH  MOCLDY    28  16  60 N3        30.41R                  
JAFFREY NH     FAIR      17  13  84 CALM      30.38R                  
KEENE NH       FAIR      15  14  95 CALM      30.43R                  
BURLINGTON VT  MOCLDY    24  19  81 NE6       30.39R WCI  17          
MT. WASHINGTON MOCLDY    30  -2  24 S8          N/A  WCI  23          
$$

NYZ052-076-241400-
EASTERN NEW YORK
  
CITY           SKY/WX    TMP DP  RH WIND       PRES   REMARKS
ALBANY         MOCLDY    22  16  78 E3        30.40R                  
NEW YORK CITY  MOCLDY    36  31  82 NE7       30.38R WCI  30          
$$
 
ANZALL-241400-
MARINE OBSERVATIONS
  
STATION/POSITION TIME  TEMP    WIND        PRES    VSBY  WAVE
                       AIR SEA DIR/SP/G                  HT/PER
                 (UTC) (F)     (DEG/KT/KT) (MB)    (MI)  (FT/S)
BOSTON BUOY      1150   39 42   10/  6/  8 1028.2          3/11
BUZZARDS BAY     1200   38     360/  6/  6 1028.7R
NANTUCKET SOUND  1240                        N/A           1
MASS BAY-STELLWA 1204   40 41   30/  6/  6 1026.9R  1 7/8  3/11
ISLE OF SHOALS   1200   37      30/ 13/ 14 1028.6R
S OF BLOCK IS    1230      45                N/A           4/11
$$

......................KEY.........................
  SKY/WX - SKY CONDITION/PRESENT WEATHER
  TMP    - TEMPERATURE IN FAHRENHEIT
  DWPT   - DEWPOINT IN FAHRENHEIT
  RH     - RELATIVE HUMIDITY IN PERCENT
  WIND   - DIRECTION AND SPEED IN MPH
  PRES   - MEAN SEA LEVEL PRESSURE IN INCHES OF HG
  WCI    - WIND CHILL INDEX
  VSB    - VISIBILITY IN MILES
  HX     - HEAT INDEX
  TC     - TEMPERATURE IN CELSIUS
  VRB    - VARIABLE WIND DIRECTION
  N/A    - NOT AVAILABLE
  
      

Other recent Regional Weather Roundups

Mon Jan 27, 7:10am

Mon Jan 27, 7:00am

Mon Jan 27, 6:10am

Mon Jan 27, 6:00am

Mon Jan 27, 5:10am

Mon Jan 27, 5:00am

Mon Jan 27, 4:10am

Mon Jan 27, 4:01am

Mon Jan 27, 3:10am

Mon Jan 27, 3:00am

Mon Jan 27, 2:10am

Mon Jan 27, 2:00am

Mon Jan 27, 1:10am

Mon Jan 27, 1:00am

Mon Jan 27, 12:10am

Mon Jan 27, 12:00am

Sun Jan 26, 11:10pm

Sun Jan 26, 11:00pm

Sun Jan 26, 10:10pm

Sun Jan 26, 10:00pm

Sun Jan 26, 9:10pm

Sun Jan 26, 9:01pm

Sun Jan 26, 8:10pm

Sun Jan 26, 8:00pm

Sun Jan 26, 7:10pm

Sun Jan 26, 7:00pm

Sun Jan 26, 6:10pm

Sun Jan 26, 6:01pm

Sun Jan 26, 5:10pm

Sun Jan 26, 5:01pm

Sun Jan 26, 4:10pm

Sun Jan 26, 4:00pm

Sun Jan 26, 3:10pm

Sun Jan 26, 3:01pm

Sun Jan 26, 2:10pm

Sun Jan 26, 2:01pm

Sun Jan 26, 1:10pm

Sun Jan 26, 1:00pm

Sun Jan 26, 12:10pm

Sun Jan 26, 12:00pm

Sun Jan 26, 11:10am

Sun Jan 26, 11:01am

Sun Jan 26, 10:10am

Sun Jan 26, 10:01am

Sun Jan 26, 9:10am

Sun Jan 26, 9:00am

Sun Jan 26, 8:10am

Sun Jan 26, 8:00am

Sun Jan 26, 7:10am

Sun Jan 26, 7:00am

Sun Jan 26, 6:10am

Sun Jan 26, 6:00am

Sun Jan 26, 5:10am

Sun Jan 26, 5:00am

Sun Jan 26, 4:10am

Sun Jan 26, 4:01am

Sun Jan 26, 3:10am

Sun Jan 26, 3:01am

Sun Jan 26, 2:10am

Sun Jan 26, 2:00am

Sun Jan 26, 1:10am

Sun Jan 26, 1:00am

Sun Jan 26, 12:10am

Sun Jan 26, 12:00am

Sat Jan 25, 11:10pm

Sat Jan 25, 11:00pm

Sat Jan 25, 10:10pm

Sat Jan 25, 10:01pm

Sat Jan 25, 9:10pm

Sat Jan 25, 9:01pm

Sat Jan 25, 8:10pm

Sat Jan 25, 8:01pm

Sat Jan 25, 7:10pm

Sat Jan 25, 7:01pm

Sat Jan 25, 6:10pm

Sat Jan 25, 6:01pm

Sat Jan 25, 5:10pm

Sat Jan 25, 5:01pm

Sat Jan 25, 4:10pm

Sat Jan 25, 4:00pm

Sat Jan 25, 3:10pm

Sat Jan 25, 3:01pm

Sat Jan 25, 2:10pm

Sat Jan 25, 2:00pm

Sat Jan 25, 1:10pm

Sat Jan 25, 1:00pm

Sat Jan 25, 12:10pm

Sat Jan 25, 12:00pm

Sat Jan 25, 11:10am

Sat Jan 25, 11:00am

Sat Jan 25, 10:10am

Sat Jan 25, 10:00am

Sat Jan 25, 9:10am

Sat Jan 25, 9:00am

Sat Jan 25, 8:10am

Sat Jan 25, 8:01am

Sat Jan 25, 7:10am

Sat Jan 25, 7:00am

Sat Jan 25, 6:10am

Sat Jan 25, 6:00am

Sat Jan 25, 5:10am

Sat Jan 25, 5:00am

Sat Jan 25, 4:10am

Sat Jan 25, 4:00am

Sat Jan 25, 3:10am

Sat Jan 25, 3:00am

Sat Jan 25, 2:10am

Sat Jan 25, 2:01am

Sat Jan 25, 1:10am

Sat Jan 25, 1:00am

Sat Jan 25, 12:10am

Sat Jan 25, 12:00am

Fri Jan 24, 11:10pm

Fri Jan 24, 11:00pm

Fri Jan 24, 10:10pm

Fri Jan 24, 10:00pm

Fri Jan 24, 9:10pm

Fri Jan 24, 9:00pm

Fri Jan 24, 8:10pm

Fri Jan 24, 8:01pm

Fri Jan 24, 7:10pm

Fri Jan 24, 7:00pm

Fri Jan 24, 6:10pm

Fri Jan 24, 6:01pm

Fri Jan 24, 5:10pm

Fri Jan 24, 5:01pm

Fri Jan 24, 4:10pm

Fri Jan 24, 4:00pm

Fri Jan 24, 3:10pm

Fri Jan 24, 3:00pm

Fri Jan 24, 2:10pm

Fri Jan 24, 2:01pm

Fri Jan 24, 1:10pm

Fri Jan 24, 1:00pm

Fri Jan 24, 12:10pm

Fri Jan 24, 12:01pm

Fri Jan 24, 11:10am

Fri Jan 24, 11:01am

Fri Jan 24, 10:10am

Fri Jan 24, 10:00am

Fri Jan 24, 9:10am

Fri Jan 24, 9:00am

Fri Jan 24, 8:10am

Meta data:

ID: f6125444-a952-42de-b67b-378968a4190d
Link: https://api.weather.gov/products/f6125444-a952-42de-b67b-378968a4190d